Location: Marlborough
(51.4223°N, 1.7415°W)
Time: 06:21:33
(UTC+00:00)

ISS - Pass Details

Date: 24 November 2023
Orbit: 415 x 417 km, 51.6° (Epoch: 09 December)

Event Time Altitude Azimuth Distance (km) Brightness Sun altitude
Rises 19:38:37 0° 279° (W) 2,364 1.2 -32.2°
Reaches altitude 10° 19:40:43 10° 279° (W) 1,500 -0.1 -32.6°
Enters shadow 19:40:43 10° 279° (W) 1,498 -0.1 -32.6°
